Погода в Оргакине

Россия / Республика Калмыкия     46°06′18″N   44°25′47″E
темп.,
°C
ветер,
м/с
пор.,
м/с
влажн.,
%
обл.,
%
осадки,
мм/ч
давл.,
гПа
погр.,
м
19 апреля, пн
пн1900:00+13ююв2283100 0.0 101729
03:00+12ю2386100 0.0 101637
06:00+12ююв3488100 0.2 1015106
09:00+13ю3690100 3.8 1016333
12:00+16ююз6881100 0.9 1015646
15:00+15зюз3589100 2.2 1014346
18:00+14юз2297100 4.8 101539
21:00+14ююв3597100 6.9 1015161
20 апреля, вт
вт2000:00+13ююв359796 0.4 1014124
03:00+13ююв51090100 0.5 1012260
06:00+12в51281100 0.4 1011348
09:00+16вюв101662100 0.4 1010766
12:00+19юв121653100 0.1 1008836
15:00+21юв11144787 0.1 1007935
18:00+17ююв3665100 0.1 1009200
21:00+15юв3472100 0.6 101193
21 апреля, ср
ср2100:00+14зсз3887100 0.4 1013249
03:00+13зсз6985100 1.1 1014408
06:00+11зсз6984100 0.1 1016471
09:00+10сз4788100 0.6 1018435
12:00+11зсз5679100 0.0 1019538
15:00+12зсз5774100 0.0 1019559
18:00+12зсз2582100 0.0 1020342
21:00+10з338779 0.0 102161
22 апреля, чт
чт2200:00+9сз338812 0.0 102130
03:00+8сз228892 0.0 102122
06:00+10ссз1285100 0.0 102219
09:00+13зсз1171100 0.0 1023416
12:00+15юз3363100 0.1 1023939
15:00+16зюз3257100 0.2 10231120
18:00+15зюз4565100 0.0 1023198
21:00+12з358283 0.0 1024110
23 апреля, пт
пт2300:00+10з3489100 0.0 102364
03:00+10зсз339091 0.0 102353
06:00+10зсз3488100 0.0 1023103
09:00+15зсз336219 0.0 1023692
12:00+18з34474 0.1 10221771
15:00+20з453667 0.1 10212566
18:00+17ссз46505 0.0 1021207
21:00+14сз335782 0.0 102132